STRIX-ALPHA (47253 NORAD) Tracking and Keplerian Element Data

This shows tracking and keplerian element data for the satellite.

Feedback or suggestion? Click here.




ElementValue
Catalog47253
NameSTRIX-ALPHA
Epoch Orbit1788
Epoch Day102.11409329
Epoch Year2021
RAAN357.1907
Inclination97.3666
Eccentricity0.0012041
Argument of Perigee245.379
Mean Anonmoly248.7662
Mean Motion15.21162979
Decay Rate1.795E-05
L11 47253U 20098A 21102.11409329 .00001795 00000-0 83555-4 0 9997
L22 47253 97.3666 357.1907 0012041 245.3790 248.7662 15.21162979 17882

Live tracking and technical data element details for STRIX-ALPHA (NORAD 47253). STRIX-ALPHA can be tracked NOW for your location showing map with azimuth and elevation plus other details from your city location.

Track the satellite on the map from your city or location and see movement details for azimuth, elevation, latitude, longitude, range, height, and movement on the map or in text.







IsCatalogInMostPopularTable: catalog: 47253, numindb: 30
Update: records affected: 1



GetName: 47253 STRIX-ALPHA

Hit Count: updated at: Tue, 13 Apr 2021 05:26:56 GMT